Regional Weather Roundup
Issued by NWS

Home | Current Version | Previous Version | Graphics & Text | Print | Product List | Glossary On
Versions: 1 2 3 4 5 6 7 8 9 10 11 12 13 14 15 16 17 18 19 20 21 22 23 24 25 26 27 28 29 30 31 32 33 34 35 36 37 38 39 40 41 42 43 44 45 46 47 48 49 50
000
ASUS43 KOAX 171210
RWRNE

WEATHER ROUNDUP FOR NEBRASKA
NATIONAL WEATHER SERVICE OMAHA NE
600 AM CST SUN DEC 17 2017

NOTES: SATELLITE DATA IS BEING USED TO AUGMENT CLOUD COVER ABOVE
       12000 FEET.
       "FAIR" INDICATES FEW OR NO CLOUDS BELOW 12,000 FEET WITH NO
       SIGNIFICANT WEATHER AND/OR OBSTRUCTIONS TO VISIBILITY.


NEZ001>004-019>022-054>056-171300-
NEBRASKA PANHANDLE

CITY           SKY/WX    TMP DP  RH WIND       PRES   REMARKS
SCOTTSBLUFF    CLOUDY    31  29  92 CALM      30.01R
6HR MIN TEMP:  31; 6HR MAX TEMP:  33;

ALLIANCE       CLOUDY    29  29 100 N3        30.00R FOG
6HR MIN TEMP:  29; 6HR MAX TEMP:  31;

CHADRON        CLOUDY    30  28  92 CALM      30.03S
6HR MIN TEMP:  29; 6HR MAX TEMP:  30;

GORDON         CLOUDY    31  29  92 NW5       30.00S WCI  26
6HR MIN TEMP:  31; 6HR MAX TEMP:  32;

KIMBALL        CLOUDY    28  28  99 CALM      29.98R
SIDNEY         CLOUDY    30  29  96 NE7       29.99R FOG     WCI  23
6HR MIN TEMP:  30; 6HR MAX TEMP:  31; 6HR PCP: TRACE;

$$

NEZ057>060-069>072-079>082-171300-
SOUTHWEST NEBRASKA

CITY           SKY/WX    TMP DP  RH WIND       PRES   REMARKS
NORTH PLATTE   CLOUDY    35  33  92 N5        30.00R WCI  31
6HR MIN TEMP:  35; 6HR MAX TEMP:  37;

IMPERIAL       CLOUDY    34  34 100 N7        29.99R FOG     WCI  28
6HR MIN TEMP:  33; 6HR MAX TEMP:  36; 6HR PCP: TRACE;

LEXINGTON      CLEAR     26  24  91 N8        29.99R WCI  18
MCCOOK         CLOUDY    36  31  82 N10       29.99R WCI  28
6HR MIN TEMP:  34; 6HR MAX TEMP:  37;

OGALLALA       DRIZZLE   34  33  95 N8        30.00S WCI  28
$$

NEZ005>010-023>029-035>040-094-171300-
NORTH CENTRAL NEBRASKA

CITY           SKY/WX    TMP DP  RH WIND       PRES   REMARKS
VALENTINE      CLOUDY    33  30  88 NW3       30.03S
6HR MIN TEMP:  31; 6HR MAX TEMP:  36;

AINSWORTH      CLOUDY    32  32 100 N3        30.03R
BROKEN BOW     CLOUDY    33  30  88 N8        30.00R WCI  26
6HR MIN TEMP:  33; 6HR MAX TEMP:  38; 6HR PCP: TRACE;

O`NEILL        CLOUDY    32  32 100 N5        30.04S WCI  27
ORD            CLOUDY    34  29  82 N10       30.01R WCI  26
6HR MIN TEMP:  34; 6HR MAX TEMP:  36;

THEDFORD       CLOUDY    34  33  97 N6        30.01S FOG     WCI  29
$$

NEZ041-046>049-061>064-073>077-083>087-171300-
SOUTH CENTRAL NEBRASKA

CITY           SKY/WX    TMP DP  RH WIND       PRES   REMARKS
GRAND ISLAND   CLOUDY    30  29  96 N10       29.98F WCI  21
6HR MIN TEMP:  30; 6HR MAX TEMP:  32;

AURORA         CLOUDY    30  28  93 N14       29.96F WCI  20
HASTINGS       PTCLDY    30  27  88 NE14      29.94F WCI  19
6HR MIN TEMP:  30; 6HR MAX TEMP:  33;

HEBRON         CLOUDY    35  32  90 NE7       29.93F WCI  29
HOLDREGE       CLEAR     28  28  99 N9        29.97R WCI  19
KEARNEY        PTCLDY    27  26  96 N10       29.97S WCI  17
YORK           MOCLDY    30  30 100 NE10      29.96F WCI  21
$$

NEZ011>018-030>034-042>045-171300-
NORTHEAST NEBRASKA

CITY           SKY/WX    TMP DP  RH WIND       PRES   REMARKS
NORFOLK        CLOUDY    30  27  88 N9        30.01S WCI  22
6HR MIN TEMP:  30; 6HR MAX TEMP:  32;

ALBION         CLOUDY    32  29  88 N7        30.01S WCI  26
BLAIR          MOCLDY    29  27  90 N13       29.96F WCI  19
FREMONT        CLOUDY    29  26  89 N3        30.00S
TEKAMAH        CLOUDY    27  22  81 N16       30.01F WCI  15
6HR MIN TEMP:  27; 6HR MAX TEMP:  30;

WAYNE          CLOUDY    29  28  96 N7        30.03F WCI  22
$$

NEZ050>053-065>068-078-088>093-171300-
SOUTHEAST NEBRASKA

CITY           SKY/WX    TMP DP  RH WIND       PRES   REMARKS
LINCOLN        CLOUDY    32  27  81 N10       29.98F WCI  24
6HR MIN TEMP:  32; 6HR MAX TEMP:  36;

OMAHA EPPLEY   CLOUDY    30  24  78 N13       29.97F WCI  20
6HR MIN TEMP:  30; 6HR MAX TEMP:  35;

BEATRICE       LGT SNOW  35  32  92 NE9       29.94F WCI  27
FALLS CITY     LGT RAIN  42  39  89 SW8       29.97R
6HR MIN TEMP:  36; 6HR MAX TEMP:  42; 6HR PCP:  0.07;

NEBRASKA CITY  CLOUDY    35  29  80 N5        29.97R WCI  31
PLATTSMOUTH    MOCLDY    32  29  87 N5        29.95F WCI  28
$$

NEZ044-045-051>053-067-171300-
OMAHA AREA

CITY           SKY/WX    TMP DP  RH WIND       PRES   REMARKS
OMAHA EPPLEY   CLOUDY    30  24  78 N13       29.97F WCI  20
6HR MIN TEMP:  30; 6HR MAX TEMP:  35;

BLAIR          MOCLDY    29  27  90 N13       29.96F WCI  19
FREMONT        CLOUDY    29  26  89 N3        30.00S
MILLARD        CLOUDY    33  28  81 N6        29.98S WCI  27
OFFUTT AFB     CLOUDY    32  26  78 N6        29.96S WCI  26
PLATTSMOUTH    MOCLDY    32  29  87 N5        29.95F WCI  28
WAHOO          FAIR      30  27  86 N13       29.98F WCI  20
$$




USA.gov is the U.S. government's official web portal to all federal, state and local government web resources and services.